Home > Weather > Strathcona County > Past weeks

Flag for Canada Past Weather in Strathcona County, Alberta, Canada — Yesterday and Last 2 Weeks

Now
52 °F

Cool.


Feels Like: 48 °F
Forecast: 43 / 56 °F
Wind: 12 mph from Northwest

Location: Edmonton Municipal

Current Time: Aug 28, 2016 at 12:54:53 PM

Latest Report: Aug 28, 2016 at 12:00 PM


Visibility: N/A

Pressure: 30.11 "Hg (27.58 "Hg at 728m altitude)

Humidity: 63%

Dew Point: 40 °F

Location of Strathcona CountyLocation

Past Weather in Strathcona County — Graph

°F

Strathcona County Temperature Yesterday

Maximum temperature yesterday: 63 °F (at 1:00 PM)
Minimum temperature yesterday: 56 °F (at 10:00 PM)
Average temperature yesterday: 59 °F

High & Low Weather Summary for the Past Weeks

 TemperatureHumidityPressure
High81 °F (Aug 13, 4:00 PM)100% (Aug 22, 1:00 PM)30.32 "Hg (Aug 22, 1:00 PM)
Low44 °F (Aug 19, 7:00 AM)27% (Aug 17, 3:00 PM)29.40 "Hg (Aug 22, 1:00 PM)
Average62 °F68%29.95 "Hg
* Reported Aug 13 11:00 AM — Aug 28 11:00 AM, Strathcona County, Weather by CustomWeather, © 2016

Note: Actual official high and low records may vary slightly from our data, if they occured in-between our weather recording intervals... More about our weather records

Advertising

Strathcona County Weather History for the Previous 24 Hours

Scroll right to see more
 ConditionsComfort  
Time TempWeatherWind HumidityBarometerVisibility
11:00 AM
Sun, Aug 28
49 °FCool.16 mph66%30.09 "HgN/A
10:00 AM48 °FCool.13 mph72%30.07 "HgN/A
9:00 AM46 °FCool.16 mph79%30.05 "HgN/A
8:00 AM45 °FCool.14 mph86%30.02 "HgN/A
7:00 AM46 °FCool.20 mph80%29.98 "HgN/A
6:00 AM46 °FCool.13 mph90%29.93 "HgN/A
5:00 AM48 °FCool.14 mph84%29.90 "HgN/A
4:00 AM50 °FCool.13 mph87%29.86 "HgN/A
3:00 AM51 °FCool.14 mph84%29.82 "HgN/A
2:00 AM52 °FCool.15 mph84%29.79 "HgN/A
1:00 AM53 °FCool.14 mph83%29.75 "HgN/A
12:00 AM56 °FCool.13 mph87%29.72 "HgN/A
11:00 PM
Sat, Aug 27
57 °FCool.15 mph78%29.71 "HgN/A
10:00 PM56 °FCool.6 mph91%29.70 "HgN/A
9:00 PM57 °FCool.6 mph90%29.67 "HgN/A
8:00 PM58 °FCool.6 mph88%29.64 "HgN/A
7:00 PM59 °FCool.3 mph83%29.62 "HgN/A
6:00 PM60 °FCool.6 mph80%29.63 "HgN/A
5:00 PM61 °FCool.3 mph73%29.61 "HgN/A
4:00 PM61 °FCool.6 mph75%29.61 "HgN/A
3:00 PM61 °FCool.6 mph75%29.60 "HgN/A
2:00 PM60 °FCool.9 mph80%29.61 "HgN/A
1:00 PM63 °FMild.5 mph76%29.58 "HgN/A
12:00 PM62 °FCool.1 mph76%29.56 "HgN/A
Weather by CustomWeather, © 2016

See weather overviewHow to use our weather pages